Zurück zum Katalog

GOES 1 AKM

AktivMEO
NORAD 20962·ROCKET BODY·🇺🇸 United States

Gestartet Oct 16, 1975 von Cape Canaveral Space Force Station

Loading…

Nächste Überflüge (nächste 24 Stunden)

TLE

AktuellSource: Space-Track

Epoche: Sep 13, 2026, 19:59 UTC

1 20962U 75100F   26256.83325959 -.00000193  00000-0  00000-0 0  9991
2 20962   2.1002 248.7015 0266596  99.4460 262.9126  1.01931699137052

Verfolge GOES 1 AKM in Echtzeit mit AllMySat

Download on the App Store